GW6932 Weather Reports


Display with metric or nautical units.
time (UTC)temp
F
wind
direction
speed
MPH
gust
MPH
rain 1hr
in
rain 24hr
in
rain mn
in
humidity
%
barometer
mb
20260509212520 92 76 3.0 3.0 0.00 0.00 0.00 51 1008.1
20260509212017 91 243 0.0 1.0 0.00 0.00 0.00 54 1008.0
20260509211512 91 293 0.0 2.0 0.00 0.00 0.00 55 1008.1
20260509211009 92 332 0.0 2.0 0.00 0.00 0.00 52 1008.4
20260509210506 93 35 1.0 3.0 0.00 0.00 0.00 52 1008.4
20260509210002 93 260 0.0 2.0 0.00 0.00 0.00 55 1008.2
20260509205456 93 32 2.0 2.0 0.00 0.00 0.00 53 1008.2
20260509204952 92 299 0.0 2.0 0.00 0.00 0.00 53 1008.4
20260509204449 91 152 0.0 2.0 0.00 0.00 0.00 59 1008.4
20260509203945 91 181 1.0 2.0 0.00 0.00 0.00 54 1008.5
20260509203441 91 248 1.0 2.0 0.00 0.00 0.00 55 1008.5
20260509202939 91 42 0.0 3.0 0.00 0.00 0.00 53 1008.7
20260509202435 90 279 2.0 2.0 0.00 0.00 0.00 59 1008.8
20260509201930 90 235 0.0 4.0 0.00 0.00 0.00 59 1008.8
20260509201425 90 127 2.0 2.0 0.00 0.00 0.00 58 1008.8
20260509200922 89 124 1.0 2.0 0.00 0.00 0.00 61 1008.8
20260509200422 89 312 0.0 2.0 0.00 0.00 0.00 61 1009.1
20260509195919 89 339 1.0 2.0 0.00 0.00 0.00 60 1009.2
20260509195415 90 104 0.0 2.0 0.00 0.00 0.00 58 1009.3
20260509194914 90 76 0.0 3.0 0.00 0.00 0.00 61 1009.1
20260509194411 90 254 1.0 3.0 0.00 0.00 0.00 57 1009.5
20260509193907 89 12 1.0 2.0 0.00 0.00 0.00 62 1009.4
20260509193407 89 315 1.0 2.0 0.00 0.00 0.00 62 1009.6
20260509192903 89 22 0.0 2.0 0.00 0.00 0.00 60 1009.6
20260509192400 88 262 0.0 2.0 0.00 0.00 0.00 61 1009.7
20260509191855 88 315 0.0 2.0 0.00 0.00 0.00 61 1009.7
20260509191351 88 309 2.0 3.0 0.00 0.00 0.00 62 1009.7
20260509190847 87 44 1.0 2.0 0.00 0.00 0.00 66 1009.7
20260509190344 88 205 0.0 2.0 0.00 0.00 0.00 64 1009.7
20260509185842 87 329 2.0 2.0 0.00 0.00 0.00 63 1009.7
20260509185338 87 209 0.0 1.0 0.00 0.00 0.00 64 1009.7
20260509184836 86 104 0.0 3.0 0.00 0.00 0.00 68 1010.1
20260509184332 86 124 0.0 1.0 0.00 0.00 0.00 67 1010.2
20260509183829 86 347 1.0 2.0 0.00 0.00 0.00 65 1010.2
20260509183324 86 293 1.0 2.0 0.00 0.00 0.00 66 1010.3
20260509182821 87 322 0.0 3.0 0.00 0.00 0.00 64 1010.2
20260509182318 87 158 1.0 3.0 0.00 0.00 0.00 64 1010.3
20260509181815 86 275 1.0 2.0 0.00 0.00 0.00 68 1010.3
20260509181312 85 307 2.0 2.0 0.00 0.00 0.00 68 1010.4
20260509180810 85 306 0.0 3.0 0.00 0.00 0.00 69 1010.4
20260509180305 84 215 5.0 7.0 0.00 0.00 0.00 67 1010.5
20260509175802 84 194 1.0 2.0 0.00 0.00 0.00 69 1010.7
20260509175259 84 142 0.0 4.0 0.00 0.00 0.00 68 1010.8
20260509174754 84 299 0.0 2.0 0.00 0.00 0.00 70 1010.8
20260509174249 84 125 0.0 1.0 0.00 0.00 0.00 69 1010.9
20260509173746 85 202 0.0 1.0 0.00 0.00 0.00 68 1010.9
20260509173242 86 330 1.0 3.0 0.00 0.00 0.00 66 1010.9
20260509172738 85 129 1.0 2.0 0.00 0.00 0.00 70 1010.9
20260509172235 84 149 2.0 3.0 0.00 0.00 0.00 72 1010.8
20260509171730 85 304 0.0 3.0 0.00 0.00 0.00 70 1010.9
20260509171227 85 129 2.0 3.0 0.00 0.00 0.00 71 1010.6
20260509170724 85 69 2.0 3.0 0.00 0.00 0.00 71 1010.6
20260509170220 84 310 0.0 3.0 0.00 0.00 0.00 75 1010.7
20260509165718 83 154 2.0 3.0 0.00 0.00 0.00 75 1010.6
20260509165214 82 84 0.0 2.0 0.00 0.00 0.00 78 1010.8
20260509164710 81 135 2.0 3.0 0.00 0.00 0.00 77 1010.6
20260509164206 81 187 1.0 2.0 0.00 0.00 0.00 77 1010.7
20260509163703 81 72 1.0 2.0 0.00 0.00 0.00 77 1010.9
20260509163200 81 25 0.0 1.0 0.00 0.00 0.00 77 1010.7
20260509162657 80 134 0.0 2.0 0.00 0.00 0.00 78 1011.0
20260509162152 81 329 0.0 0.0 0.00 0.00 0.00 79 1010.9
20260509161649 80 52 0.0 0.0 0.00 0.00 0.00 80 1011.0
20260509161144 80 89 0.0 2.0 0.00 0.00 0.00 80 1010.9
20260509160640 80 164 0.0 2.0 0.00 0.00 0.00 81 1011.0
20260509160135 80 288 1.0 1.0 0.00 0.00 0.00 81 1011.1
20260509155632 80 235 0.0 3.0 0.00 0.00 0.00 82 1010.9
20260509155128 80 164 0.0 2.0 0.00 0.00 0.00 81 1011.3
20260509154624 79 66 0.0 2.0 0.00 0.00 0.00 84 1011.3
20260509154121 79 108 2.0 2.0 0.00 0.00 0.00 84 1011.4
20260509153618 79 119 0.0 2.0 0.00 0.00 0.00 84 1011.2
20260509153115 78 83 1.0 1.0 0.00 0.00 0.00 86 1011.4
20260509152611 78 128 0.0 2.0 0.00 0.00 0.00 86 1011.3
20260509152109 78 89 0.0 2.0 0.00 0.00 0.00 87 1011.2
20260509151604 78 137 0.0 2.0 0.00 0.00 0.00 87 1011.4
20260509151103 78 95 2.0 2.0 0.00 0.00 0.00 87 1011.3
20260509150600 77 38 0.0 1.0 0.00 0.00 0.00 88 1011.2
20260509150058 77 72 0.0 2.0 0.00 0.00 0.00 89 1011.2
20260509145553 77 117 0.0 2.0 0.00 0.00 0.00 89 1011.1
20260509145049 76 82 0.0 1.0 0.00 0.00 0.00 90 1011.0
20260509144546 76 68 1.0 2.0 0.00 0.00 0.00 91 1011.1
20260509144043 76 73 1.0 2.0 0.00 0.00 0.00 92 1011.0
20260509143540 75 103 0.0 2.0 0.00 0.00 0.00 92 1011.0
20260509143038 75 99 1.0 1.0 0.00 0.00 0.00 92 1010.8
20260509142539 75 118 2.0 2.0 0.00 0.00 0.00 92 1010.6
20260509142035 75 118 1.0 1.0 0.00 0.00 0.00 92 1010.7
20260509141531 75 77 2.0 2.0 0.00 0.00 0.00 93 1010.6
20260509141028 75 132 0.0 1.0 0.00 0.00 0.00 93 1010.3
20260509140525 75 80 0.0 2.0 0.00 0.00 0.00 93 1010.5
20260509140023 75 59 0.0 2.0 0.00 0.00 0.00 93 1010.6
20260509135520 75 75 0.0 2.0 0.00 0.00 0.00 94 1010.4
20260509135017 75 83 2.0 2.0 0.00 0.00 0.00 94 1010.9
20260509134514 74 111 0.0 1.0 0.00 0.00 0.00 95 1010.9
20260509134012 74 67 1.0 2.0 0.00 0.00 0.00 95 1010.9
20260509133508 74 101 2.0 2.0 0.00 0.00 0.00 96 1010.9
20260509133007 74 89 0.0 1.0 0.00 0.00 0.00 96 1011.0
20260509132505 74 55 0.0 1.0 0.00 0.00 0.00 96 1011.1
20260509132002 74 62 0.0 0.0 0.00 0.00 0.00 97 1011.2
20260509131458 74 85 1.0 1.0 0.00 0.00 0.00 97 1011.1
20260509130955 74 74 0.0 2.0 0.00 0.00 0.00 97 1011.0
20260509130450 74 87 0.0 2.0 0.00 0.00 0.00 97 1011.1
20260509125948 73 66 1.0 2.0 0.00 0.00 0.00 97 1011.1
20260509125444 73 99 2.0 2.0 0.00 0.00 0.00 97 1011.2
20260509124940 73 130 0.0 1.0 0.00 0.00 0.00 98 1011.4
20260509124437 73 58 0.0 1.0 0.00 0.00 0.00 97 1011.0
20260509123934 73 117 0.0 2.0 0.00 0.00 0.00 97 1011.1
20260509123432 73 99 1.0 1.0 0.00 0.00 0.00 97 1011.2
20260509122928 73 89 0.0 1.0 0.00 0.00 0.00 97 1011.2
20260509122425 72 50 0.0 0.0 0.00 0.00 0.00 97 1011.2
20260509121921 72 66 0.0 1.0 0.00 0.00 0.00 97 1011.1
20260509121418 72 95 0.0 2.0 0.00 0.00 0.00 97 1011.0
20260509120916 72 101 1.0 1.0 0.00 0.00 0.00 97 1010.7
20260509120414 72 62 0.0 1.0 0.00 0.00 0.00 97 1010.3
20260509115912 72 103 0.0 1.0 0.00 0.00 0.00 97 1010.3
20260509115409 72 76 0.0 1.0 0.00 0.00 0.00 97 1010.5
20260509114906 72 83 0.0 1.0 0.00 0.00 0.00 97 1010.4
20260509114405 72 89 1.0 1.0 0.00 0.00 0.00 97 1010.1
20260509113904 72 162 0.0 2.0 0.00 0.00 0.00 97 1010.1
20260509113401 72 102 0.0 2.0 0.00 0.00 0.00 97 1010.2
20260509112857 72 124 1.0 2.0 0.00 0.00 0.00 97 1010.2
20260509112354 72 89 0.0 2.0 0.00 0.00 0.00 97 1010.2
20260509111852 72 89 0.0 1.0 0.00 0.00 0.00 97 1010.6
20260509111348 72 120 1.0 1.0 0.00 0.00 0.00 97 1010.6
20260509110846 72 89 0.0 0.0 0.00 0.00 0.00 97 1010.5
20260509110342 72 128 2.0 2.0 0.00 0.00 0.00 97 1010.6
20260509105841 72 80 0.0 1.0 0.00 0.00 0.00 97 1010.5
20260509105338 72 89 0.0 2.0 0.00 0.00 0.00 97 1010.7
20260509104835 72 50 1.0 2.0 0.00 0.00 0.00 97 1010.9
20260509104331 72 89 0.0 2.0 0.00 0.00 0.00 97 1011.0
20260509103829 72 60 1.0 2.0 0.00 0.00 0.00 97 1010.8
20260509103326 72 25 0.0 1.0 0.00 0.00 0.00 97 1010.7
20260509102825 72 62 0.0 1.0 0.00 0.00 0.00 97 1010.7
20260509102322 72 17 0.0 0.0 0.00 0.00 0.00 97 1010.4
20260509101818 72 55 0.0 2.0 0.00 0.00 0.00 97 1010.4
20260509101314 72 68 1.0 1.0 0.00 0.00 0.00 97 1010.1
20260509100812 72 89 0.0 1.0 0.00 0.00 0.00 97 1009.7
20260509100309 72 53 0.0 2.0 0.00 0.00 0.00 97 1009.6
20260509095805 72 81 1.0 1.0 0.00 0.00 0.00 97 1009.6
20260509095305 72 62 0.0 0.0 0.00 0.00 0.00 97 1009.6
20260509094800 72 108 0.0 1.0 0.00 0.00 0.00 97 1009.7
20260509094256 72 89 0.0 1.0 0.00 0.00 0.00 97 1009.7
20260509093754 72 89 0.0 1.0 0.00 0.00 0.00 97 1009.7
20260509093251 72 101 0.0 1.0 0.00 0.00 0.00 97 1009.9
20260509092750 72 66 0.0 0.0 0.00 0.00 0.00 97 1010.2
20260509092247 72 89 0.0 0.0 0.00 0.00 0.00 97 1010.4
20260509091745 72 129 0.0 1.0 0.00 0.00 0.00 97 1010.2
20260509091241 72 123 1.0 1.0 0.00 0.00 0.00 97 1010.1
20260509090739 72 111 0.0 1.0 0.00 0.00 0.00 97 1010.4
20260509090236 72 93 1.0 1.0 0.00 0.00 0.00 97 1010.4
20260509085734 72 89 0.0 1.0 0.00 0.00 0.00 97 1010.6
20260509085231 72 62 0.0 1.0 0.00 0.00 0.00 97 1010.4
20260509084727 72 50 0.0 1.0 0.00 0.00 0.00 97 1010.4
20260509084224 72 89 0.0 0.0 0.00 0.00 0.00 97 1010.1
20260509083722 72 50 0.0 1.0 0.00 0.00 0.00 97 1010.2
20260509083218 72 44 0.0 1.0 0.00 0.00 0.00 97 1010.4
20260509082715 72 77 0.0 0.0 0.00 0.00 0.00 97 1010.2
20260509082212 72 68 1.0 2.0 0.00 0.00 0.00 97 1010.1
20260509081708 72 89 0.0 1.0 0.00 0.00 0.00 97 1010.1
20260509081206 72 89 0.0 1.0 0.00 0.00 0.00 97 1010.2
20260509080704 72 62 0.0 1.0 0.00 0.00 0.00 97 1010.1
20260509080201 72 96 1.0 2.0 0.00 0.00 0.00 97 1010.0
20260509075659 72 99 1.0 2.0 0.00 0.00 0.00 97 1010.1
20260509075157 72 123 2.0 2.0 0.00 0.00 0.00 97 1010.2
20260509074653 72 80 2.0 2.0 0.00 0.00 0.00 97 1010.3
20260509074150 72 106 1.0 2.0 0.00 0.00 0.00 97 1010.2
20260509073647 72 127 2.0 2.0 0.00 0.00 0.00 96 1010.2
20260509073143 72 126 0.0 2.0 0.00 0.00 0.00 96 1010.3
20260509072641 72 76 2.0 2.0 0.00 0.00 0.00 96 1010.3
20260509072137 72 109 1.0 2.0 0.00 0.00 0.00 96 1010.3
20260509071633 72 122 1.0 2.0 0.00 0.00 0.00 96 1010.5
20260509071131 72 93 1.0 2.0 0.00 0.00 0.00 96 1010.3
20260509070628 72 86 1.0 2.0 0.00 0.00 0.00 96 1010.4
20260509070124 72 100 1.0 2.0 0.00 0.00 0.00 96 1010.7
20260509065620 72 89 1.0 1.0 0.00 0.00 0.00 96 1010.7
20260509065116 72 79 0.0 1.0 0.00 0.00 0.00 96 1010.6
20260509064614 72 85 1.0 1.0 0.00 0.00 0.00 96 1010.6
20260509064112 72 87 0.0 1.0 0.00 0.00 0.00 96 1010.4
20260509063608 72 105 1.0 2.0 0.00 0.00 0.00 96 1010.7
20260509063105 72 94 0.0 2.0 0.00 0.00 0.00 96 1010.5
20260509062602 72 62 0.0 2.0 0.00 0.00 0.00 96 1010.4
20260509062059 72 89 0.0 2.0 0.00 0.00 0.00 96 1010.6
20260509061555 72 122 1.0 2.0 0.00 0.00 0.00 96 1010.8
20260509061053 72 89 0.0 2.0 0.00 0.00 0.00 96 1010.8
20260509060551 72 50 0.0 1.0 0.00 0.00 0.00 96 1010.7
20260509060046 72 94 1.0 2.0 0.00 0.00 0.00 96 1010.7
20260509055542 72 89 1.0 2.0 0.00 0.00 0.00 96 1010.7
20260509055038 72 111 0.0 3.0 0.00 0.00 0.00 96 1010.7
20260509054535 72 87 1.0 2.0 0.00 0.00 0.00 96 1010.9
20260509054033 72 89 1.0 2.0 0.00 0.00 0.00 96 1011.0
20260509053531 72 112 2.0 2.0 0.00 0.00 0.00 96 1011.1
20260509053027 72 86 1.0 3.0 0.00 0.00 0.00 96 1011.0
20260509052525 72 96 1.0 2.0 0.00 0.00 0.00 96 1011.0
20260509052023 71 114 1.0 2.0 0.00 0.00 0.00 96 1011.0
20260509051521 71 89 1.0 2.0 0.00 0.00 0.00 96 1010.9
20260509051018 71 138 2.0 3.0 0.00 0.00 0.00 96 1010.6
20260509050514 71 74 2.0 4.0 0.00 0.00 0.00 96 1010.8
20260509050011 71 100 2.0 2.0 0.00 0.00 0.00 95 1010.9
20260509045508 71 120 1.0 2.0 0.00 0.00 0.00 95 1010.9
20260509045005 71 113 2.0 3.0 0.00 0.00 0.00 95 1011.2
20260509044503 71 102 2.0 3.0 0.00 0.00 0.00 95 1010.9
20260509044000 71 117 2.0 3.0 0.00 0.00 0.00 95 1011.0
20260509043455 71 103 0.0 2.0 0.00 0.00 0.00 95 1010.9
20260509042951 71 83 2.0 2.0 0.00 0.00 0.00 95 1010.8
20260509042449 71 93 2.0 6.0 0.00 0.00 0.00 95 1010.7
20260509041944 71 80 2.0 3.0 0.00 0.00 0.00 95 1010.8
20260509041442 71 60 1.0 4.0 0.00 0.00 0.00 95 1011.0
20260509040940 71 75 1.0 2.0 0.00 0.00 0.00 95 1010.9
20260509040438 71 97 1.0 2.0 0.00 0.00 0.00 95 1010.7
20260509035934 71 87 2.0 3.0 0.00 0.00 0.00 95 1010.8
20260509035431 71 84 1.0 4.0 0.00 0.00 0.00 95 1010.8
20260509034927 71 110 2.0 3.0 0.00 0.00 0.00 95 1010.7
20260509034425 71 80 2.0 3.0 0.00 0.00 0.00 95 1010.8
20260509033922 71 89 1.0 2.0 0.00 0.00 0.00 95 1010.7
20260509033419 71 83 2.0 2.0 0.00 0.00 0.00 95 1010.7
20260509032915 71 116 0.0 2.0 0.00 0.00 0.00 95 1010.7
20260509032413 71 98 0.0 3.0 0.00 0.00 0.00 95 1010.5
20260509031911 71 61 0.0 3.0 0.00 0.00 0.00 95 1010.5
20260509031408 71 98 2.0 4.0 0.00 0.00 0.00 95 1010.5
20260509030905 71 111 2.0 4.0 0.00 0.00 0.00 95 1010.6
20260509030404 71 98 2.0 3.0 0.00 0.00 0.00 95 1010.4
20260509025900 71 98 2.0 3.0 0.00 0.00 0.00 95 1010.5
20260509025355 71 92 2.0 4.0 0.00 0.00 0.00 95 1010.3
20260509024851 71 129 2.0 3.0 0.00 0.00 0.00 95 1010.2
20260509024347 71 73 2.0 3.0 0.00 0.00 0.00 95 1010.6
20260509023844 71 82 1.0 3.0 0.00 0.00 0.00 95 1010.4
20260509023342 71 147 3.0 4.0 0.00 0.00 0.00 95 1010.1
20260509022838 71 66 2.0 3.0 0.00 0.00 0.00 95 1010.1
20260509022336 71 109 2.0 3.0 0.00 0.00 0.00 95 1009.8
20260509021832 71 111 3.0 3.0 0.00 0.00 0.00 95 1010.1
20260509021329 71 103 1.0 4.0 0.00 0.00 0.00 95 1010.0
20260509020827 71 81 1.0 4.0 0.00 0.00 0.00 95 1010.1
20260509020325 71 94 1.0 3.0 0.00 0.00 0.00 95 1010.3
20260509015822 71 85 2.0 5.0 0.00 0.00 0.00 95 1010.1
20260509015320 71 83 2.0 3.0 0.00 0.00 0.00 95 1009.9
20260509014816 71 103 0.0 3.0 0.00 0.00 0.00 95 1010.1
20260509014314 71 60 2.0 4.0 0.00 0.00 0.00 95 1010.0
20260509013810 71 93 2.0 3.0 0.00 0.00 0.00 95 1010.4
20260509013307 71 74 3.0 5.0 0.00 0.00 0.00 95 1010.0
20260509012803 71 97 2.0 3.0 0.00 0.00 0.00 95 1010.0
20260509012300 72 83 1.0 5.0 0.00 0.00 0.00 94 1009.9
20260509011757 72 112 1.0 3.0 0.00 0.00 0.00 94 1009.8
20260509011254 72 83 4.0 7.0 0.00 0.00 0.00 94 1009.9
20260509010752 72 87 2.0 3.0 0.00 0.00 0.00 94 1009.8
20260509010248 72 121 2.0 3.0 0.00 0.00 0.00 94 1009.6
20260509005746 72 85 2.0 3.0 0.00 0.00 0.00 94 1009.6
20260509005244 72 107 2.0 5.0 0.00 0.00 0.00 94 1009.5
20260509004743 72 85 3.0 4.0 0.00 0.00 0.00 94 1009.6
20260509004241 72 87 3.0 4.0 0.00 0.00 0.00 94 1009.5
20260509003739 72 120 2.0 3.0 0.00 0.00 0.00 94 1009.7
20260509003236 72 128 1.0 3.0 0.00 0.00 0.00 94 1009.8
20260509002733 72 123 1.0 4.0 0.00 0.00 0.00 94 1009.7
20260509002231 72 89 3.0 3.0 0.00 0.00 0.00 94 1009.9
20260509001728 72 82 2.0 3.0 0.00 0.00 0.00 94 1010.1
20260509001224 72 96 3.0 4.0 0.00 0.00 0.00 94 1009.9
20260509000722 72 41 1.0 2.0 0.00 0.00 0.00 93 1010.0
20260509000219 72 92 2.0 5.0 0.00 0.00 0.00 93 1009.9
20260508235716 73 77 1.0 3.0 0.00 0.00 0.00 93 1009.9
20260508235212 73 109 1.0 4.0 0.00 0.00 0.00 92 1009.8
20260508234710 73 109 4.0 5.0 0.00 0.00 0.00 91 1010.0
20260508234206 73 117 2.0 6.0 0.00 0.00 0.00 90 1010.1
20260508233706 73 95 2.0 4.0 0.00 0.00 0.00 89 1010.1
20260508233203 73 120 4.0 6.0 0.00 0.00 0.00 88 1010.1
20260508232700 74 122 2.0 4.0 0.00 0.00 0.00 88 1010.1
20260508232156 74 117 3.0 4.0 0.00 0.00 0.00 87 1010.2
20260508231655 74 118 2.0 5.0 0.00 0.00 0.00 87 1010.1
20260508231151 74 126 0.0 4.0 0.00 0.00 0.00 86 1010.0
20260508230648 75 82 4.0 6.0 0.00 0.00 0.00 85 1010.0
20260508230144 75 88 4.0 5.0 0.00 0.00 0.00 85 1009.9
20260508225642 75 112 2.0 2.0 0.00 0.00 0.00 85 1009.9
20260508225138 75 129 2.0 3.0 0.00 0.00 0.00 84 1009.7
20260508224636 75 114 2.0 4.0 0.00 0.00 0.00 84 1009.8
20260508224134 75 151 3.0 3.0 0.00 0.00 0.00 83 1010.0
20260508223631 76 118 2.0 6.0 0.00 0.00 0.00 82 1009.7
20260508223128 76 79 2.0 2.0 0.00 0.00 0.00 83 1009.9
20260508222626 76 99 2.0 5.0 0.00 0.00 0.00 83 1009.8
20260508222122 76 46 0.0 3.0 0.00 0.00 0.00 82 1010.0
20260508221619 76 88 2.0 4.0 0.00 0.00 0.00 81 1010.1
20260508221114 76 125 2.0 3.0 0.00 0.00 0.00 81 1010.1
20260508220611 76 78 3.0 3.0 0.00 0.00 0.00 81 1010.1
20260508220108 76 52 1.0 4.0 0.00 0.00 0.00 81 1010.0
20260508215605 76 104 0.0 4.0 0.00 0.00 0.00 81 1009.9
20260508215101 77 86 2.0 5.0 0.00 0.00 0.00 79 1010.2
20260508214558 77 66 2.0 4.0 0.00 0.00 0.00 79 1010.2
20260508214055 77 77 1.0 2.0 0.00 0.00 0.00 78 1010.1
20260508213552 78 125 0.0 2.0 0.00 0.00 0.00 77 1010.2
20260508213048 78 82 2.0 3.0 0.00 0.00 0.00 77 1010.2